Location: Chagrin Falls Park
(41.4139°N, 81.3865°W)
Time: 18:38:29
(UTC+00:00)

X-37B - Pass Details

Date: 06 August 2021
Orbit: 381 x 393 km, 45.0° (Epoch: 29 August)

Event Time Altitude Azimuth Distance (km) Brightness Sun altitude
Exits shadow 08:05:58 48° 43° (NE) 503 1.5 -21.9°
Drops below altitude 10° 08:08:26 10° 67° (ENE) 1,398 4.3 -21.6°
Sets 08:10:31 0° 70° (ENE) 2,252 5.5 -21.3°
